EW4713 Weather Reports


Display with metric or nautical units.
time (UTC)temp
F
wind
direction
speed
MPH
gust
MPH
rain 1hr
in
rain 24hr
in
rain mn
in
humidity
%
barometer
mb
20260902214753 81 254 0.0 3.0 0.00 0.00 0.00 50 1009.0
20260902214253 78 322 2.0 5.0 0.00 0.00 0.00 54 1009.0
20260902213752 79 258 4.0 5.0 0.00 0.00 0.00 52 1009.3
20260902213252 80 344 0.0 4.0 0.00 0.00 0.00 53 1009.0
20260902212751 79 344 4.0 4.0 0.00 0.00 0.00 50 1009.0
20260902212252 79 198 2.0 3.0 0.00 0.00 0.00 51 1009.3
20260902211751 79 188 0.0 4.0 0.00 0.00 0.00 52 1009.0
20260902211252 78 289 1.0 5.0 0.00 0.00 0.00 51 1009.0
20260902210750 78 286 0.0 5.0 0.00 0.00 0.00 56 1009.0
20260902210251 79 294 0.0 4.0 0.00 0.00 0.00 54 1009.0
20260902205749 79 277 0.0 4.0 0.00 0.00 0.00 55 1009.0
20260902205250 81 237 0.0 2.0 0.00 0.00 0.00 53 1009.3
20260902204749 80 341 2.0 5.0 0.00 0.00 0.00 54 1009.3
20260902204250 78 252 2.0 4.0 0.00 0.00 0.00 54 1009.3
20260902203748 79 270 2.0 4.0 0.00 0.00 0.00 57 1009.3
20260902203250 79 301 0.0 4.0 0.00 0.00 0.00 53 1009.7
20260902202748 81 257 0.0 3.0 0.00 0.00 0.00 55 1009.3
20260902201746 78 283 2.0 6.0 0.00 0.00 0.00 57 1009.3
20260902201248 77 288 4.0 7.0 0.00 0.00 0.00 56 1009.7
20260902200746 78 278 0.0 7.0 0.00 0.00 0.00 56 1009.3
20260902195745 78 270 2.0 4.0 0.00 0.00 0.00 55 1009.7
20260902195247 77 300 1.0 4.0 0.00 0.00 0.00 55 1009.7
20260902194745 77 315 2.0 4.0 0.00 0.00 0.00 57 1009.3
20260902194246 76 285 0.0 4.0 0.00 0.00 0.00 57 1009.7
20260902193744 80 29 0.0 3.0 0.00 0.00 0.00 54 1009.7
20260902193246 79 303 2.0 9.0 0.00 0.00 0.00 56 1009.7
20260902192245 75 321 4.0 6.0 0.00 0.00 0.00 61 1009.7
20260902191743 76 236 2.0 6.0 0.00 0.00 0.00 59 1009.7
20260902191243 79 185 0.0 3.0 0.00 0.00 0.00 56 1009.7
20260902190244 79 325 0.0 5.0 0.00 0.00 0.00 55 1009.7
20260902185742 77 186 0.0 5.0 0.00 0.00 0.00 59 1009.7
20260902185242 76 270 1.0 4.0 0.00 0.00 0.00 56 1010.0
20260902184742 76 304 2.0 4.0 0.00 0.00 0.00 60 1010.0
20260902184243 76 287 4.0 4.0 0.00 0.00 0.00 57 1009.7
20260902183741 76 261 0.0 4.0 0.00 0.00 0.00 60 1009.7
20260902183241 74 270 1.0 3.0 0.00 0.00 0.00 62 1010.0
20260902182741 76 294 0.0 2.0 0.00 0.00 0.00 60 1009.7
20260902182241 76 188 0.0 2.0 0.00 0.00 0.00 62 1009.7
20260902181740 75 265 2.0 3.0 0.00 0.00 0.00 62 1009.7
20260902181241 75 65 2.0 3.0 0.00 0.00 0.00 64 1010.0
20260902175739 74 334 3.0 7.0 0.00 0.00 0.00 63 1010.0
20260902175240 73 286 4.0 7.0 0.00 0.00 0.00 63 1010.0
20260902174737 74 277 1.0 4.0 0.00 0.00 0.00 61 1010.0
20260902174239 75 348 2.0 4.0 0.00 0.00 0.00 63 1010.3
20260902173737 75 0 1.0 4.0 0.00 0.00 0.00 61 1010.3
20260902172737 75 243 0.0 2.0 0.00 0.00 0.00 58 1010.3
20260902172237 75 334 0.0 2.0 0.00 0.00 0.00 60 1010.3
20260902171736 74 83 0.0 2.0 0.00 0.00 0.00 62 1010.0
20260902171238 74 255 0.0 3.0 0.00 0.00 0.00 63 1010.3
20260902170237 73 312 2.0 3.0 0.00 0.00 0.00 61 1010.3
20260902164735 73 246 1.0 1.0 0.00 0.00 0.00 65 1010.3
20260902164236 73 26 0.0 4.0 0.00 0.00 0.00 67 1010.3
20260902163733 72 294 0.0 4.0 0.00 0.00 0.00 72 1010.3
20260902163235 73 270 0.0 2.0 0.00 0.00 0.00 68 1010.3
20260902162234 72 165 0.0 2.0 0.00 0.00 0.00 70 1010.3
20260902160732 70 23 2.0 2.0 0.00 0.00 0.00 71 1010.3
20260902160233 70 261 0.0 3.0 0.00 0.00 0.00 76 1010.3
20260902155732 71 74 0.0 3.0 0.00 0.00 0.00 75 1010.3
20260902155233 71 354 0.0 3.0 0.00 0.00 0.00 76 1010.3
20260902154231 70 84 0.0 2.0 0.00 0.00 0.00 75 1010.3
20260902153231 69 0 0.0 2.0 0.00 0.00 0.00 75 1010.3
20260902152231 69 328 2.0 2.0 0.00 0.00 0.00 76 1010.3
20260902151729 70 255 0.0 2.0 0.00 0.00 0.00 77 1010.3
20260902151230 70 240 0.0 1.0 0.00 0.00 0.00 82 1010.3
20260902150728 69 209 0.0 3.0 0.00 0.00 0.00 77 1010.3
20260902150230 69 172 0.0 3.0 0.00 0.00 0.00 77 1010.3
20260902145729 70 270 0.0 2.0 0.00 0.00 0.00 77 1010.3
20260902145227 69 216 2.0 2.0 0.00 0.00 0.00 76 1010.3
20260902144727 70 261 0.0 1.0 0.00 0.00 0.00 76 1010.3
20260902144227 69 157 0.0 2.0 0.00 0.00 0.00 78 1010.3
20260902143727 72 188 0.0 2.0 0.00 0.00 0.00 75 1010.3
20260902143228 72 180 0.0 3.0 0.00 0.00 0.00 77 1010.3
20260902142725 71 289 2.0 3.0 0.00 0.00 0.00 74 1010.3
20260902142226 71 270 0.0 3.0 0.00 0.00 0.00 76 1010.3
20260902141227 72 294 0.0 2.0 0.00 0.00 0.00 74 1010.3
20260902140724 70 90 0.0 1.0 0.00 0.00 0.00 80 1010.3
20260902140226 72 195 0.0 1.0 0.00 0.00 0.00 77 1010.3
20260902135724 71 203 0.0 1.0 0.00 0.00 0.00 77 1010.3
20260902135225 70 206 0.0 1.0 0.00 0.00 0.00 79 1010.3
20260902134724 69 90 0.0 0.0 0.00 0.00 0.00 81 1010.3
20260902134225 68 90 0.0 0.0 0.00 0.00 0.00 86 1010.3
20260902133723 66 90 0.0 0.0 0.00 0.00 0.00 92 1010.3
20260902133224 63 90 0.0 0.0 0.00 0.00 0.00 99 1010.7
20260902131722 63 90 0.0 0.0 0.00 0.00 0.00 99 1010.3
20260902130721 55 90 0.0 1.0 0.00 0.00 0.00 99 1010.3
20260902130222 55 90 0.0 1.0 0.00 0.00 0.00 99 1010.3
20260902125720 54 90 0.0 1.0 0.00 0.00 0.00 99 1010.3
20260902125221 54 74 0.0 1.0 0.00 0.00 0.00 99 1010.7
20260902124720 53 82 0.0 0.0 0.00 0.00 0.00 99 1010.3
20260902123719 52 82 0.0 0.0 0.00 0.00 0.00 99 1010.3
20260902123220 52 82 0.0 0.0 0.00 0.00 0.00 99 1010.3
20260902122719 52 82 0.0 0.0 0.00 0.00 0.00 99 1010.3
20260902122220 52 82 0.0 0.0 0.00 0.00 0.00 99 1010.3
20260902121718 52 82 0.0 0.0 0.00 0.00 0.00 99 1010.0
20260902121219 51 82 0.0 0.0 0.00 0.00 0.00 99 1010.0
20260902120717 51 82 0.0 1.0 0.00 0.00 0.00 99 1010.0
20260902120219 51 81 0.0 0.0 0.00 0.00 0.00 99 1010.0
20260902115717 51 74 0.0 0.0 0.00 0.00 0.00 99 1010.0
20260902115218 51 74 0.0 1.0 0.00 0.00 0.00 99 1010.0
20260902114218 51 106 0.0 0.0 0.00 0.00 0.00 99 1010.3
20260902113716 51 106 0.0 0.0 0.00 0.00 0.00 99 1010.0
20260902113217 51 106 0.0 0.0 0.00 0.00 0.00 99 1010.3
20260902112203 52 106 0.0 0.0 0.00 0.00 0.00 99 1010.0
20260902111701 52 106 0.0 0.0 0.00 0.00 0.00 99 1009.7
20260902111202 52 106 0.0 0.0 0.00 0.00 0.00 99 1009.7
20260902110700 52 106 0.0 0.0 0.00 0.00 0.00 99 1009.7
20260902105700 52 106 0.0 0.0 0.00 0.00 0.00 99 1009.7
20260902105202 53 106 0.0 0.0 0.00 0.00 0.00 99 1009.7
20260902104702 52 106 0.0 1.0 0.00 0.00 0.00 99 1009.7
20260902104203 53 106 0.0 1.0 0.00 0.00 0.00 99 1010.0
20260902103701 53 106 0.0 1.0 0.00 0.00 0.00 99 1010.0
20260902103202 53 74 0.0 1.0 0.00 0.00 0.00 99 1010.0
20260902102701 53 75 0.0 1.0 0.00 0.00 0.00 99 1010.0
20260902102203 53 75 0.0 1.0 0.00 0.00 0.00 99 1010.0
20260902101701 53 180 0.0 0.0 0.00 0.00 0.00 99 1009.7
20260902101202 54 180 0.0 0.0 0.00 0.00 0.00 99 1010.0
20260902100701 54 180 0.0 0.0 0.00 0.00 0.00 99 1010.0
20260902095700 54 180 0.0 0.0 0.00 0.00 0.00 99 1010.0
20260902095203 54 180 0.0 0.0 0.00 0.00 0.00 99 1010.0
20260902094701 54 180 0.0 0.0 0.00 0.00 0.00 99 1010.0
20260902094201 54 180 0.0 0.0 0.00 0.00 0.00 99 1010.0
20260902093700 53 180 0.0 0.0 0.00 0.00 0.00 99 1009.7
20260902093202 53 180 0.0 0.0 0.00 0.00 0.00 99 1009.7
20260902092203 54 157 0.0 1.0 0.00 0.00 0.00 99 1009.7
20260902091701 53 157 0.0 1.0 0.00 0.00 0.00 99 1009.7
20260902090701 53 0 0.0 0.0 0.00 0.00 0.00 99 1009.3
20260902090201 53 0 0.0 0.0 0.00 0.00 0.00 99 1009.3
20260902085701 53 0 0.0 0.0 0.00 0.00 0.00 99 1009.3
20260902085203 53 0 0.0 0.0 0.00 0.00 0.00 99 1009.3
20260902084701 53 0 0.0 0.0 0.00 0.00 0.00 99 1009.3
20260902084201 54 0 0.0 1.0 0.00 0.00 0.00 99 1009.3
20260902083700 54 0 0.0 1.0 0.00 0.00 0.00 99 1009.3
20260902083201 54 90 0.0 1.0 0.00 0.00 0.00 99 1009.0
20260902082701 54 81 0.0 1.0 0.00 0.00 0.00 99 1009.3
20260902082201 54 81 0.0 0.0 0.00 0.00 0.00 99 1009.0
20260902081701 55 81 0.0 0.0 0.00 0.00 0.00 99 1009.0
20260902081202 55 81 0.0 0.0 0.00 0.00 0.00 99 1009.0
20260902080702 55 81 0.0 0.0 0.00 0.00 0.00 99 1009.0
20260902080201 55 90 0.0 0.0 0.00 0.00 0.00 98 1008.5
20260902075702 55 105 0.0 0.0 0.00 0.00 0.00 98 1009.3
20260902074200 56 105 0.0 0.0 0.00 0.00 0.00 98 1009.3
20260902073700 56 105 0.0 0.0 0.00 0.00 0.00 98 1009.3
20260902073201 56 105 0.0 0.0 0.00 0.00 0.00 98 1009.3
20260902072700 56 105 0.0 0.0 0.00 0.00 0.00 98 1009.3
20260902072202 56 105 0.0 0.0 0.00 0.00 0.00 97 1009.3
20260902071700 56 105 0.0 0.0 0.00 0.00 0.00 97 1009.3
20260902071201 56 105 0.0 0.0 0.00 0.00 0.00 97 1009.3
20260902070659 56 157 0.0 1.0 0.00 0.00 0.00 97 1009.7
20260902070201 57 157 0.0 1.0 0.00 0.00 0.00 97 1009.7
20260902065659 57 165 0.0 0.0 0.00 0.00 0.00 97 1009.7
20260902064159 56 99 0.0 0.0 0.00 0.00 0.00 96 1009.7
20260902063658 56 99 0.0 0.0 0.00 0.00 0.00 96 1009.3
20260902063159 56 99 0.0 0.0 0.00 0.00 0.00 96 1009.7
20260902062656 57 99 0.0 0.0 0.00 0.00 0.00 96 1009.7
20260902062159 57 99 0.0 0.0 0.00 0.00 0.00 96 1009.7
20260902060655 57 90 0.0 0.0 0.00 0.00 0.00 95 1009.3
20260902060155 57 90 0.0 0.0 0.00 0.00 0.00 95 1009.0
20260902055655 57 90 0.0 0.0 0.00 0.00 0.00 94 1009.3
20260902055156 57 90 0.0 0.0 0.00 0.00 0.00 94 1009.3
20260902054654 57 90 0.0 0.0 0.00 0.00 0.00 94 1009.7
20260902054156 57 90 0.0 0.0 0.00 0.00 0.00 94 1009.3
20260902053654 58 90 0.0 0.0 0.00 0.00 0.00 93 1009.3
20260902053154 58 90 0.0 0.0 0.00 0.00 0.00 93 1009.3
20260902052653 58 0 0.0 0.0 0.00 0.00 0.00 93 1009.3
20260902052153 58 0 0.0 0.0 0.00 0.00 0.00 93 1009.3
20260902051653 58 0 0.0 0.0 0.00 0.00 0.00 92 1009.7
20260902051153 58 0 0.0 0.0 0.00 0.00 0.00 92 1009.3
20260902050653 58 0 0.0 0.0 0.00 0.00 0.00 92 1009.3
20260902050152 59 0 0.0 0.0 0.00 0.00 0.00 92 1009.3
20260902045653 58 0 0.0 0.0 0.00 0.00 0.00 92 1009.3
20260902045151 59 0 0.0 0.0 0.00 0.00 0.00 92 1009.3
20260902043651 59 0 0.0 0.0 0.00 0.00 0.00 93 1009.7
20260902043150 58 352 0.0 0.0 0.00 0.00 0.00 92 1009.7
20260902042651 58 352 0.0 0.0 0.00 0.00 0.00 93 1009.7
20260902042150 58 352 0.0 0.0 0.00 0.00 0.00 92 1009.7
20260902041149 58 352 0.0 0.0 0.00 0.00 0.00 92 1009.7
20260902040650 58 352 0.0 0.0 0.00 0.00 0.00 92 1009.7
20260902035147 58 352 0.0 0.0 0.00 0.00 0.00 92 1009.3
20260902034648 58 352 0.0 0.0 0.00 0.00 0.00 91 1009.3
20260902034147 59 352 0.0 0.0 0.00 0.00 0.00 91 1009.3
20260902033146 59 352 0.0 0.0 0.00 0.00 0.00 91 1009.7
20260902032648 59 352 0.0 0.0 0.00 0.00 0.00 91 1009.7
20260902032145 59 352 0.0 0.0 0.00 0.00 0.00 90 1009.7
20260902031647 59 0 0.0 0.0 0.00 0.00 0.00 90 1009.3
20260902031145 59 0 0.0 0.0 0.00 0.00 0.00 90 1009.7
20260902030646 60 0 0.0 0.0 0.00 0.00 0.00 90 1009.3
20260902030144 60 0 0.0 0.0 0.00 0.00 0.00 90 1009.3
20260902025646 60 0 0.0 0.0 0.00 0.00 0.00 89 1009.7
20260902025144 60 0 0.0 0.0 0.00 0.00 0.00 89 1009.3
20260902024645 60 0 0.0 0.0 0.00 0.00 0.00 88 1009.3
20260902023645 60 0 0.0 0.0 0.00 0.00 0.00 88 1009.7
20260902023143 61 0 0.0 0.0 0.00 0.00 0.00 87 1009.3
20260902022644 61 0 0.0 0.0 0.00 0.00 0.00 87 1009.7
20260902022142 61 90 0.0 0.0 0.00 0.00 0.00 87 1009.7
20260902021643 61 90 0.0 0.0 0.00 0.00 0.00 87 1009.7
20260902021142 61 90 0.0 0.0 0.00 0.00 0.00 87 1009.3
20260902020642 62 90 0.0 0.0 0.00 0.00 0.00 86 1009.7
20260902020141 62 90 0.0 0.0 0.00 0.00 0.00 86 1009.3
20260902015640 62 90 0.0 0.0 0.00 0.00 0.00 85 1009.3
20260902015143 63 90 0.0 0.0 0.00 0.00 0.00 85 1009.3
20260902014642 63 90 0.0 0.0 0.00 0.00 0.00 85 1009.0
20260902014140 63 90 0.0 0.0 0.00 0.00 0.00 84 1009.0
20260902013639 63 90 0.0 0.0 0.00 0.00 0.00 83 1009.0
20260902012639 64 90 0.0 0.0 0.00 0.00 0.00 83 1009.0
20260902012140 65 90 0.0 0.0 0.00 0.00 0.00 83 1009.0
20260902011638 65 90 0.0 0.0 0.00 0.00 0.00 79 1008.5
20260902011139 66 90 0.0 0.0 0.00 0.00 0.00 82 1009.0
20260902005640 67 90 0.0 0.0 0.00 0.00 0.00 76 1009.0
20260902005130 68 90 0.0 0.0 0.00 0.00 0.00 74 1008.5
20260902004629 69 90 0.0 0.0 0.00 0.00 0.00 72 1008.5
20260902003129 71 90 0.0 0.0 0.00 0.00 0.00 71 1008.5
20260902002628 71 90 0.0 0.0 0.00 0.00 0.00 64 1009.0
20260902002129 72 279 0.0 0.0 0.00 0.00 0.00 64 1008.5
20260902001629 72 106 0.0 1.0 0.00 0.00 0.00 61 1008.5
20260902001129 73 106 0.0 2.0 0.00 0.00 0.00 64 1009.0
20260902000630 73 98 1.0 2.0 0.00 0.00 0.00 61 1009.0
20260901235628 74 68 0.0 2.0 0.00 0.00 0.00 61 1009.0
20260901235129 74 68 0.0 2.0 0.00 0.00 0.00 60 1009.0
20260901234630 75 328 0.0 2.0 0.00 0.00 0.00 59 1008.5
20260901234129 75 99 0.0 2.0 0.00 0.00 0.00 58 1008.5
20260901233631 76 99 0.0 2.0 0.00 0.00 0.00 56 1008.5
20260901233129 76 147 0.0 4.0 0.00 0.00 0.00 58 1009.0
20260901232631 75 90 0.0 4.0 0.00 0.00 0.00 56 1008.5
20260901231631 75 98 0.0 2.0 0.00 0.00 0.00 57 1008.5
20260901231129 75 139 0.0 2.0 0.00 0.00 0.00 57 1008.5
20260901230630 75 346 0.0 3.0 0.00 0.00 0.00 57 1009.0
20260901230128 75 103 0.0 3.0 0.00 0.00 0.00 57 1009.0
20260901225630 75 90 0.0 5.0 0.00 0.00 0.00 58 1008.5
20260901225129 74 85 0.0 5.0 0.00 0.00 0.00 56 1008.5
20260901224129 75 352 0.0 3.0 0.00 0.00 0.00 60 1008.5
20260901223629 75 90 0.0 3.0 0.00 0.00 0.00 56 1008.5
20260901223128 75 0 0.0 2.0 0.00 0.00 0.00 56 1008.5
20260901222629 76 339 2.0 5.0 0.00 0.00 0.00 59 1009.0
20260901222128 76 342 0.0 5.0 0.00 0.00 0.00 55 1008.5
20260901221627 76 90 1.0 4.0 0.00 0.00 0.00 61 1008.5
20260901220626 77 98 0.0 2.0 0.00 0.00 0.00 56 1009.0
20260901220127 77 8 0.0 5.0 0.00 0.00 0.00 58 1008.5
20260901215628 76 90 0.0 5.0 0.00 0.00 0.00 55 1008.5